This is the latest recevied weather packets stored in our database for station/object F6BIJ-13. If no packets are shown the sender has not sent any weather packets the latest 10 day(s).
| Time | Temp. | Humidity | Pressure | Rain* | Wind** | Luminosity | Snow |
|---|---|---|---|---|---|---|---|
| 1788370237 | 24.44° C | 54% | 1020 hPa | 0 mm | - | - | - |
| 1788369876 | 25° C | 53% | 1020 hPa | 0 mm | - | - | - |
| 1788369156 | 25° C | 51% | 1020 hPa | 0 mm | - | - | - |
| 1788368797 | 25.56° C | 52% | 1020 hPa | 0 mm | - | - | - |
| 1788368077 | 25.56° C | 51% | 1020 hPa | 0 mm | - | - | - |
| 1788367716 | 25.56° C | 48% | 1020 hPa | 0 mm | - | - | - |
| 1788367357 | 26.67° C | 49% | 1020 hPa | 0 mm | - | - | - |
| 1788366997 | 26.11° C | 45% | 1020 hPa | 0 mm | - | - | - |
| 1788366637 | 26.67° C | 48% | 1020 hPa | 0 mm | - | - | - |
| 1788366277 | 27.22° C | 47% | 1020 hPa | 0 mm | - | - | - |
| 1788365916 | 27.78° C | 47% | 1020 hPa | 0 mm | - | - | - |
| 1788365557 | 27.78° C | 46% | 1020 hPa | 0 mm | - | - | - |
| 1788365196 | 27.78° C | 46% | 1020 hPa | 0 mm | - | - | - |
| 1788364836 | 27.78° C | 46% | 1020 hPa | 0 mm | - | - | - |
| 1788364477 | 27.78° C | 45% | 1020 hPa | 0 mm | - | - | - |
| 1788364117 | 27.78° C | 48% | 1020 hPa | 0 mm | - | - | - |
| 1788362676 | 27.78° C | 49% | 1020 hPa | 0 mm | - | - | - |
| 1788362317 | 27.78° C | 48% | 1020 hPa | 0 mm | - | - | - |
| 1788360517 | 27.78° C | 46% | 1020 hPa | 0 mm | - | - | - |
| 1788360157 | 27.78° C | 44% | 1020 hPa | 0 mm | - | - | - |
| 1788359796 | 27.78° C | 44% | 1020 hPa | 0 mm | - | - | - |
| 1788359437 | 27.78° C | 43% | 1020 hPa | 0 mm | - | - | - |
| 1788359076 | 27.78° C | 43% | 1020 hPa | 0 mm | - | - | - |
| 1788358357 | 28.33° C | 40% | 1020 hPa | 0 mm | - | - | - |
| 1788357996 | 28.33° C | 42% | 1020 hPa | 0 mm | - | - | - |
* Rain latest 24 hours (hover to see other rain measurements)
** Current wind speed in m/s (hover to see current wind gust speed)